Time,TemperatureF,DewpointF,PressureIn,WindDirection,WindDirectionDegrees,WindSpeedMPH,WindSpeedGustMPH,Humidity,HourlyPrecipIn,Conditions,Clouds,dailyrainin,SolarRadiationWatts/m^2,SoftwareType,DateUTC
2013-01-10 00:03:00,49.0,27.0,-100.00,WNW,288,13.0,21.0,43,0.00,,,0.00,0.000000,,2013-01-10 05:03:00,
2013-01-10 00:12:00,49.0,27.0,-100.00,WNW,288,13.0,21.0,43,0.00,,,0.00,0.000000,,2013-01-10 05:12:00,
2013-01-10 00:33:00,47.0,28.0,-100.00,SSE,162,4.0,21.0,48,0.00,,,0.00,0.000000,,2013-01-10 05:33:00,
2013-01-10 00:43:00,47.0,28.0,-100.00,SSE,162,4.0,21.0,48,0.00,,,0.00,0.000000,,2013-01-10 05:43:00,
2013-01-10 00:53:00,47.0,28.0,-100.00,SSE,162,4.0,21.0,48,0.00,,,0.00,0.000000,,2013-01-10 05:53:00,
2013-01-10 01:03:00,47.0,28.0,-100.00,SSE,162,4.0,21.0,48,0.00,,,0.00,0.000000,,2013-01-10 06:03:00,
2013-01-10 01:12:00,47.0,28.0,-100.00,SSE,162,4.0,21.0,48,0.00,,,0.00,0.000000,,2013-01-10 06:12:00,
2013-01-10 01:32:00,44.0,27.0,-100.00,SSW,202,3.0,7.0,51,0.00,,,0.00,0.000000,,2013-01-10 06:32:00,
2013-01-10 01:42:00,44.0,27.0,-100.00,SSW,202,3.0,7.0,51,0.00,,,0.00,0.000000,,2013-01-10 06:42:00,
2013-01-10 01:52:00,44.0,27.0,-100.00,SSW,202,3.0,7.0,51,0.00,,,0.00,0.000000,,2013-01-10 06:52:00,
2013-01-10 02:02:00,44.0,27.0,-100.00,SSW,202,3.0,7.0,51,0.00,,,0.00,0.000000,,2013-01-10 07:02:00,
2013-01-10 02:12:00,44.0,27.0,-100.00,SSW,202,3.0,7.0,51,0.00,,,0.00,0.000000,,2013-01-10 07:12:00,
2013-01-10 02:42:00,45.0,27.0,-100.00,West,277,5.0,10.0,49,0.00,,,0.00,0.000000,,2013-01-10 07:42:00,
2013-01-10 02:52:00,45.0,27.0,-100.00,West,277,5.0,10.0,49,0.00,,,0.00,0.000000,,2013-01-10 07:52:00,
2013-01-10 03:02:00,45.0,27.0,-100.00,West,277,5.0,10.0,49,0.00,,,0.00,0.000000,,2013-01-10 08:02:00,
2013-01-10 03:12:00,45.0,27.0,-100.00,West,277,5.0,10.0,49,0.00,,,0.00,0.000000,,2013-01-10 08:12:00,
2013-01-10 03:33:00,45.0,27.0,-100.00,WNW,299,11.0,16.0,48,0.00,,,0.00,0.000000,,2013-01-10 08:33:00,
2013-01-10 03:42:00,45.0,27.0,-100.00,WNW,299,11.0,16.0,48,0.00,,,0.00,0.000000,,2013-01-10 08:42:00,
2013-01-10 03:53:00,45.0,27.0,-100.00,WNW,299,11.0,16.0,48,0.00,,,0.00,0.000000,,2013-01-10 08:53:00,
2013-01-10 04:02:00,45.0,27.0,-100.00,WNW,299,11.0,16.0,48,0.00,,,0.00,0.000000,,2013-01-10 09:02:00,
2013-01-10 04:12:00,45.0,27.0,-100.00,WNW,299,11.0,16.0,48,0.00,,,0.00,0.000000,,2013-01-10 09:12:00,
2013-01-10 04:43:00,43.0,26.0,-100.00,NW,310,8.0,17.0,50,0.00,,,0.00,0.000000,,2013-01-10 09:43:00,
2013-01-10 04:53:00,43.0,26.0,-100.00,NW,310,8.0,17.0,50,0.00,,,0.00,0.000000,,2013-01-10 09:53:00,
2013-01-10 05:03:00,43.0,26.0,-100.00,NW,310,8.0,17.0,50,0.00,,,0.00,0.000000,,2013-01-10 10:03:00,
2013-01-10 05:12:00,43.0,26.0,-100.00,NW,310,8.0,17.0,50,0.00,,,0.00,0.000000,,2013-01-10 10:12:00,
2013-01-10 05:33:00,43.0,25.0,-100.00,NW,310,7.0,16.0,48,0.00,,,0.00,0.000000,,2013-01-10 10:33:00,
2013-01-10 05:43:00,43.0,25.0,-100.00,NW,310,7.0,16.0,48,0.00,,,0.00,0.000000,,2013-01-10 10:43:00,
2013-01-10 05:53:00,43.0,25.0,-100.00,NW,310,7.0,16.0,48,0.00,,,0.00,0.000000,,2013-01-10 10:53:00,
2013-01-10 06:03:00,43.0,25.0,-100.00,NW,310,7.0,16.0,48,0.00,,,0.00,0.000000,,2013-01-10 11:03:00,
2013-01-10 06:12:00,43.0,25.0,-100.00,NW,310,7.0,16.0,48,0.00,,,0.00,0.000000,,2013-01-10 11:12:00,
2013-01-10 06:43:00,42.0,25.0,-100.00,NE,48,5.0,14.0,50,0.00,,,0.00,0.000000,,2013-01-10 11:43:00,
2013-01-10 06:53:00,42.0,25.0,-100.00,NE,48,5.0,14.0,50,0.00,,,0.00,0.000000,,2013-01-10 11:53:00,
2013-01-10 07:03:00,42.0,25.0,-100.00,NE,48,5.0,14.0,50,0.00,,,0.00,0.000000,,2013-01-10 12:03:00,
2013-01-10 07:12:00,42.0,25.0,-100.00,NE,48,5.0,14.0,50,0.00,,,0.00,0.000000,,2013-01-10 12:12:00,
2013-01-10 09:33:00,45.0,27.0,-100.00,NW,314,4.0,6.0,50,-99.99,,,0.00,143.000000,,2013-01-10 14:33:00,
2013-01-10 09:43:00,45.0,27.0,-100.00,NW,314,4.0,6.0,50,-99.99,,,0.00,143.000000,,2013-01-10 14:43:00,
2013-01-10 09:53:00,45.0,27.0,-100.00,NW,314,4.0,6.0,50,-99.99,,,0.00,143.000000,,2013-01-10 14:53:00,
2013-01-10 10:03:00,45.0,27.0,-100.00,NW,314,4.0,6.0,50,-99.99,,,0.00,143.000000,,2013-01-10 15:03:00,
2013-01-10 10:12:00,45.0,27.0,-100.00,NW,314,4.0,6.0,50,-99.99,,,0.00,143.000000,,2013-01-10 15:12:00,
2013-01-10 10:13:00,47.0,28.0,-100.00,NNW,342,5.0,9.0,48,0.00,,,0.00,290.000000,,2013-01-10 15:13:00,
2013-01-10 10:33:00,47.0,28.0,-100.00,NNW,342,5.0,9.0,48,0.00,,,0.00,290.000000,,2013-01-10 15:33:00,
2013-01-10 10:43:00,47.0,28.0,-100.00,NNW,342,5.0,9.0,48,0.00,,,0.00,290.000000,,2013-01-10 15:43:00,
2013-01-10 10:53:00,47.0,28.0,-100.00,NNW,342,5.0,9.0,48,0.00,,,0.00,290.000000,,2013-01-10 15:53:00,
2013-01-10 11:03:00,47.0,28.0,-100.00,NNW,342,5.0,9.0,48,0.00,,,0.00,290.000000,,2013-01-10 16:03:00,
2013-01-10 11:43:00,50.0,29.0,-100.00,WNW,288,4.0,9.0,44,0.00,,,0.00,381.000000,,2013-01-10 16:43:00,
2013-01-10 11:53:00,50.0,29.0,-100.00,WNW,288,4.0,9.0,44,0.00,,,0.00,381.000000,,2013-01-10 16:53:00,
2013-01-10 12:03:00,50.0,29.0,-100.00,WNW,288,4.0,9.0,44,0.00,,,0.00,381.000000,,2013-01-10 17:03:00,
2013-01-10 12:12:00,50.0,29.0,-100.00,WNW,288,4.0,9.0,44,0.00,,,0.00,381.000000,,2013-01-10 17:12:00,
2013-01-10 12:43:00,49.0,29.0,-100.00,NNE,19,2.0,9.0,45,0.00,,,0.00,361.000000,,2013-01-10 17:43:00,
2013-01-10 12:53:00,49.0,29.0,-100.00,NNE,19,2.0,9.0,45,0.00,,,0.00,361.000000,,2013-01-10 17:53:00,
2013-01-10 13:03:00,49.0,29.0,-100.00,NNE,19,2.0,9.0,45,0.00,,,0.00,361.000000,,2013-01-10 18:03:00,
2013-01-10 13:12:00,49.0,29.0,-100.00,NNE,19,2.0,9.0,45,0.00,,,0.00,361.000000,,2013-01-10 18:12:00,
2013-01-10 13:13:00,51.0,28.0,-100.00,North,349,5.0,8.0,40,0.00,,,0.00,353.000000,,2013-01-10 18:13:00,
2013-01-10 13:44:00,51.0,28.0,-100.00,North,349,5.0,8.0,40,0.00,,,0.00,353.000000,,2013-01-10 18:44:00,
2013-01-10 13:53:00,51.0,28.0,-100.00,North,349,5.0,8.0,40,0.00,,,0.00,353.000000,,2013-01-10 18:53:00,
2013-01-10 14:03:00,51.0,28.0,-100.00,North,349,5.0,8.0,40,0.00,,,0.00,353.000000,,2013-01-10 19:03:00,
2013-01-10 14:13:00,52.0,29.0,-100.00,NE,36,4.0,7.0,41,0.00,,,-99.99,360.000000,,2013-01-10 19:13:00,
2013-01-10 14:44:00,52.0,29.0,-100.00,NE,36,4.0,7.0,41,0.00,,,-99.99,360.000000,,2013-01-10 19:44:00,
2013-01-10 14:53:00,52.0,29.0,-100.00,NE,36,4.0,7.0,41,0.00,,,-99.99,360.000000,,2013-01-10 19:53:00,
2013-01-10 15:03:00,52.0,29.0,-100.00,NE,36,4.0,7.0,41,0.00,,,-99.99,360.000000,,2013-01-10 20:03:00,
2013-01-10 15:13:00,52.0,29.0,-100.00,NNE,27,5.0,8.0,41,0.00,,,0.00,288.000000,,2013-01-10 20:13:00,
2013-01-10 15:33:00,52.0,29.0,-100.00,NNE,27,5.0,8.0,41,0.00,,,0.00,288.000000,,2013-01-10 20:33:00,
2013-01-10 15:43:00,52.0,29.0,-100.00,NNE,27,5.0,8.0,41,0.00,,,0.00,288.000000,,2013-01-10 20:43:00,
2013-01-10 15:53:00,52.0,29.0,-100.00,NNE,27,5.0,8.0,41,0.00,,,0.00,288.000000,,2013-01-10 20:53:00,
2013-01-10 16:04:00,52.0,29.0,-100.00,NNE,27,5.0,8.0,41,0.00,,,0.00,288.000000,,2013-01-10 21:04:00,
2013-01-10 16:13:00,50.0,28.0,-100.00,NE,36,6.0,10.0,42,0.00,,,0.00,222.000000,,2013-01-10 21:13:00,
2013-01-10 16:33:00,50.0,28.0,-100.00,NE,36,6.0,10.0,42,0.00,,,0.00,222.000000,,2013-01-10 21:33:00,
2013-01-10 16:43:00,50.0,28.0,-100.00,NE,36,6.0,10.0,42,0.00,,,0.00,222.000000,,2013-01-10 21:43:00,
2013-01-10 16:53:00,50.0,28.0,-100.00,NE,36,6.0,10.0,42,0.00,,,0.00,222.000000,,2013-01-10 21:53:00,
2013-01-10 17:04:00,50.0,28.0,-100.00,NE,36,6.0,10.0,42,0.00,,,0.00,222.000000,,2013-01-10 22:04:00,
2013-01-10 17:13:00,48.0,28.0,-100.00,ENE,65,2.0,7.0,45,0.00,,,0.00,34.000000,,2013-01-10 22:13:00,
2013-01-10 17:44:00,48.0,28.0,-100.00,ENE,65,2.0,7.0,45,0.00,,,0.00,34.000000,,2013-01-10 22:44:00,
2013-01-10 18:03:00,48.0,28.0,-100.00,ENE,65,2.0,7.0,45,0.00,,,0.00,34.000000,,2013-01-10 23:03:00,
2013-01-10 18:13:00,45.0,27.0,-100.00,NNE,20,2.0,5.0,49,0.00,,,0.00,0.000000,,2013-01-10 23:13:00,
2013-01-10 18:43:00,45.0,27.0,-100.00,NNE,20,2.0,5.0,49,0.00,,,0.00,0.000000,,2013-01-10 23:43:00,
2013-01-10 18:53:00,45.0,27.0,-100.00,NNE,20,2.0,5.0,49,0.00,,,0.00,0.000000,,2013-01-10 23:53:00,
2013-01-10 19:03:00,45.0,27.0,-100.00,NNE,20,2.0,5.0,49,0.00,,,0.00,0.000000,,2013-01-11 00:03:00,
2013-01-10 19:13:00,44.0,28.0,-100.00,North,2,3.0,8.0,53,0.00,,,0.00,0.000000,,2013-01-11 00:13:00,
2013-01-10 19:43:00,44.0,28.0,-100.00,North,2,3.0,8.0,53,0.00,,,0.00,0.000000,,2013-01-11 00:43:00,
2013-01-10 19:53:00,44.0,28.0,-100.00,North,2,3.0,8.0,53,0.00,,,0.00,0.000000,,2013-01-11 00:53:00,
2013-01-10 20:03:00,44.0,28.0,-100.00,North,2,3.0,8.0,53,0.00,,,0.00,0.000000,,2013-01-11 01:03:00,
2013-01-10 20:13:00,43.0,28.0,-100.00,North,354,2.0,4.0,56,0.00,,,0.00,0.000000,,2013-01-11 01:13:00,
2013-01-10 20:34:00,43.0,28.0,-100.00,North,354,2.0,4.0,56,0.00,,,0.00,0.000000,,2013-01-11 01:34:00,
2013-01-10 20:43:00,43.0,28.0,-100.00,North,354,2.0,4.0,56,0.00,,,0.00,0.000000,,2013-01-11 01:43:00,
2013-01-10 20:53:00,43.0,28.0,-100.00,North,354,2.0,4.0,56,0.00,,,0.00,0.000000,,2013-01-11 01:53:00,
2013-01-10 21:03:00,43.0,28.0,-100.00,North,354,2.0,4.0,56,0.00,,,0.00,0.000000,,2013-01-11 02:03:00,
2013-01-10 21:13:00,41.0,29.0,-100.00,North,7,1.0,3.0,62,0.00,,,0.00,0.000000,,2013-01-11 02:13:00,
2013-01-10 21:44:00,41.0,29.0,-100.00,North,7,1.0,3.0,62,0.00,,,0.00,0.000000,,2013-01-11 02:44:00,
2013-01-10 21:54:00,41.0,29.0,-100.00,North,7,1.0,3.0,62,0.00,,,0.00,0.000000,,2013-01-11 02:54:00,
2013-01-10 22:03:00,41.0,29.0,-100.00,North,7,1.0,3.0,62,0.00,,,0.00,0.000000,,2013-01-11 03:03:00,
2013-01-10 22:34:00,40.0,28.0,-100.00,NE,34,2.0,4.0,62,0.00,,,0.00,0.000000,,2013-01-11 03:34:00,
2013-01-10 22:43:00,40.0,28.0,-100.00,NE,34,2.0,4.0,62,0.00,,,0.00,0.000000,,2013-01-11 03:43:00,
2013-01-10 22:53:00,40.0,28.0,-100.00,NE,34,2.0,4.0,62,0.00,,,0.00,0.000000,,2013-01-11 03:53:00,
2013-01-10 23:02:00,40.0,28.0,-100.00,NE,34,2.0,4.0,62,0.00,,,0.00,0.000000,,2013-01-11 04:02:00,
2013-01-10 23:12:00,40.0,28.0,-100.00,NE,34,2.0,4.0,62,0.00,,,0.00,0.000000,,2013-01-11 04:12:00,
2013-01-10 23:13:00,39.0,28.0,-100.00,North,349,2.0,4.0,64,0.00,,,0.00,0.000000,,2013-01-11 04:13:00,
2013-01-10 23:33:00,39.0,28.0,-100.00,North,349,2.0,4.0,64,0.00,,,0.00,0.000000,,2013-01-11 04:33:00,
2013-01-10 23:43:00,39.0,28.0,-100.00,North,349,2.0,4.0,64,0.00,,,0.00,0.000000,,2013-01-11 04:43:00,
2013-01-10 23:53:00,39.0,28.0,-100.00,North,349,2.0,4.0,64,0.00,,,0.00,0.000000,,2013-01-11 04:53:00,